[[{"header":{"parameterUnit":"m.s-1","parameterCategory":1,"la1":30.2991,"la2":30.254,"lo1":-89.0895,"lo2":-89.0444,"dy":0.0017,"dx":0.0017,"nx":28,"ny":28,"refTime":"2025-05-27T21:00:00:Z","depth":0,"parameterNumber":2,"parameterNumberName":"U-component_of_WINDS"},"data":[0,0,0,0,0,0,0,0,0,0,0,0,0,0,0,0,0,0,0,0,0,0,0,0,0,0,0,0,0,0,0,0,0,0,0,0,0,0,0,0,0,0,0,0,0,0,0,0,0,0,0,0,0,0,0,0,0,0,1.5617,1.5618,0,1.5763,1.5764,1.5766,1.5748,1.5746,1.5743,1.5741,1.5896,1.5902,1.5909,0,0,0,0,0,0,0,0,0,0,0,0,0,1.5328,1.5334,1.5616,1.5618,1.562,1.5763,1.5765,1.5767,1.5748,1.5746,1.5743,1.574,1.5894,1.5902,1.5909,0,0,0,0,0,0,0,0,0,0,0,0,0,1.5462,1.5335,1.5616,1.5628,1.5631,1.5762,1.5765,1.5767,1.5749,1.5745,1.5742,1.5739,1.5892,1.5901,1.591,1.6041,0,0,1.594,1.5944,0,0,0,0,0,0,0,0,1.5454,1.5473,1.5624,1.5627,1.563,1.5733,1.572,1.5859,1.575,1.5704,1.5741,1.5737,1.5845,1.5858,1.5894,1.6048,1.6055,1.594,1.5946,1.595,1.5953,0,0,0,0,0,0,0,1.5445,1.5466,1.5674,1.5627,1.563,1.5628,1.5643,1.5746,1.5793,1.5708,1.5707,1.5724,1.5846,1.5885,1.5897,1.6057,1.594,1.5949,1.5955,1.5958,1.6331,1.6335,0,0,0,0,0,0,1.5432,1.5459,1.567,1.5679,1.5532,1.5637,1.5653,1.5704,1.5792,1.5802,1.5727,1.5723,1.587,1.5886,1.5903,1.6065,1.595,1.5959,1.5965,1.6327,1.6332,1.6336,0,0,0,0,0,0,1.5426,1.5451,1.5664,1.5569,1.5595,1.5645,1.5702,1.5709,1.5747,1.5807,1.5815,1.5757,1.5868,1.5889,1.6007,1.607,1.5963,1.5972,1.6322,1.6328,1.6334,1.6388,0,0,0,0,0,0,1.5418,1.5449,1.5497,1.557,1.5601,1.5764,1.5706,1.5714,1.5763,1.5759,1.5837,1.5847,1.5867,1.5993,1.6017,1.6081,1.598,1.6316,1.6324,1.6332,1.638,1.6395,1.6407,0,0,0,0,0,1.5407,1.5507,1.55,1.5525,1.5662,1.5767,1.5785,1.5805,1.5768,1.5819,1.5857,1.5844,1.6058,1.6005,1.6032,1.61,1.6312,1.6322,1.6331,1.6374,1.6392,1.6407,0,0,0,0,0,0,1.5441,1.5516,1.5509,1.5635,1.5695,1.5764,1.5828,1.5822,1.5895,1.5889,1.5911,1.5929,1.6049,1.6086,1.6025,1.6233,1.6181,1.6196,1.6205,1.6222,1.6235,1.6225,1.5988,0,0,0,0,0,1.5463,1.5541,1.5603,1.5708,1.5738,1.5778,1.5825,1.5835,1.5899,1.5924,1.5971,1.6036,1.6118,1.6171,1.625,1.6385,1.6404,1.6445,1.6458,1.6469,1.6483,1.6561,1.6581,1.6367,1.6367,1.6367,0,0,1.551,1.556,1.5608,1.5716,1.5763,1.5846,1.58,1.5888,1.5951,1.5938,1.6053,1.609,1.6164,1.6292,1.635,1.6326,1.6546,1.6481,1.6489,1.6497,1.6573,1.6593,1.6611,1.6373,1.6372,1.6371,0,0,1.5637,1.5681,1.5775,1.5824,1.5897,1.5923,1.5946,1.6017,1.6041,1.6156,1.6149,1.6225,1.6365,1.6419,1.6464,1.6615,1.6607,1.664,1.671,1.6786,1.6803,1.6818,1.6876,1.6896,1.6652,1.6653,1.6653,0,1.5686,1.5808,1.5824,1.5915,1.5964,1.5956,1.6053,1.61,1.6196,1.6231,1.6202,1.6379,1.6428,1.657,1.6607,1.6643,1.6673,1.6632,1.6799,1.6814,1.6829,1.6884,1.6905,1.6656,1.6656,1.6656,1.6655,0,1.5867,1.5952,1.6019,1.6111,1.6168,1.6261,1.6294,1.635,1.6356,1.6386,1.6506,1.6564,1.6655,1.6689,1.6696,1.6834,1.6817,1.6793,1.6742,1.6853,1.6905,1.6926,1.6662,1.666,1.6659,1.6658,0,0,1.602,1.612,1.6145,1.6188,1.6269,1.6336,1.643,1.6519,1.6568,1.6635,1.6717,1.6837,1.6816,1.6868,1.688,1.6946,1.7067,1.6915,1.6917,1.6944,1.7227,1.7247,1.7271,1.7061,1.7065,1.7068,1.7222,0,1.6157,1.6322,1.6341,1.649,1.6571,1.6565,1.6648,1.6708,1.674,1.6815,1.685,1.6936,1.69,1.6932,1.6997,1.7038,1.7124,1.7027,1.7141,1.7145,1.7126,1.7298,1.7318,1.7461,1.7243,1.7246,1.7248,0,1.634,1.6411,1.6568,1.664,1.6675,1.6749,1.6833,1.6904,1.6973,1.6992,1.7051,1.7056,1.7157,1.7099,1.7241,1.7174,1.7222,1.725,1.7256,1.727,1.7205,1.7319,1.7506,1.7529,1.728,1.7278,1.7275,0,1.644,1.6575,1.6687,1.6724,1.681,1.6863,1.6901,1.6967,1.702,1.7095,1.713,1.7216,1.7263,1.7331,1.736,1.7315,1.7502,1.7446,1.7523,1.7523,1.7564,1.7562,1.7765,1.759,1.759,1.759,1.7589,0,1.6593,1.669,1.6734,1.6803,1.6913,1.6934,1.7043,1.708,1.7139,1.7217,1.7217,1.7292,1.7324,1.7404,1.7427,1.7543,1.7564,1.7585,1.759,1.7586,1.7584,1.762,1.7612,1.7595,1.7594,1.7593,1.7592,0,1.6724,1.6757,1.6879,1.6951,1.6971,1.7049,1.7112,1.7181,1.7212,1.7312,1.7336,1.7386,1.7481,1.7515,1.7631,1.7647,1.7782,1.7778,1.7759,1.7761,1.7837,1.7831,1.8073,1.8108,1.7907,1.7909,1.791,0,1.6821,1.6896,1.6976,1.7028,1.7068,1.7152,1.7206,1.7231,1.7289,1.7375,1.7434,1.7528,1.7605,1.7757,1.7805,1.7895,1.7895,1.7973,1.7908,1.7903,1.79,1.7897,1.7906,1.7986,1.7988,1.799,1.7991,0,1.6991,1.7004,1.7081,1.7166,1.7231,1.7299,1.7365,1.7408,1.7444,1.7509,1.7605,1.7665,1.7783,1.7878,1.797,1.8013,1.801,1.8011,1.8035,1.8033,1.802,1.8032,1.7795,1.8006,1.8005,1.8004,1.8003,1.8002,1.711,1.7178,1.7245,1.7333,1.7385,1.7448,1.7517,1.7556,1.7637,1.7734,1.7745,1.785,1.7921,1.8044,1.8091,1.8175,1.8154,1.8187,1.8196,1.8204,1.8212,1.8004,1.8192,1.8191,1.8191,1.8191,1.819,0,1.7283,1.7327,1.7407,1.75,1.757,1.7558,1.7632,1.7692,1.7784,1.7849,1.7925,1.8038,1.813,1.8186,1.828,1.8337,1.8338,1.8361,1.8359,1.8369,1.8223,1.8195,1.8359,1.8359,1.8358,1.8358,1.8358,1.8358,1.7382,1.7496,1.7518,1.766,1.7703,1.7805,1.7848,1.7907,1.796,1.8086,1.8162,1.8197,1.826,1.8359,1.8445,1.8459,1.8495,1.852,1.8533,1.8396,1.8379,1.8363,1.8337,1.8527,1.8527,1.8673,1.8674,1.8675]},{"header":{"parameterUnit":"m.s-1","parameterCategory":1,"la1":30.2991,"la2":30.254,"lo1":-89.0895,"lo2":-89.0444,"dy":0.0017,"dx":0.0017,"nx":28,"ny":28,"refTime":"2025-05-27T21:00:00:Z","depth":0,"parameterNumber":3,"parameterNumberName":"V-component_of_WINDS"},"data":[0,0,0,0,0,0,0,0,0,0,0,0,0,0,0,0,0,0,0,0,0,0,0,0,0,0,0,0,0,0,0,0,0,0,0,0,0,0,0,0,0,0,0,0,0,0,0,0,0,0,0,0,0,0,0,0,0,0,-0.1738,-0.1737,0,-0.1613,-0.1612,-0.1611,-0.1588,-0.1589,-0.159,-0.1591,-0.1459,-0.1455,-0.145,0,0,0,0,0,0,0,0,0,0,0,0,0,-0.1952,-0.1948,-0.1738,-0.1737,-0.1735,-0.1614,-0.1612,-0.161,-0.1588,-0.1589,-0.1591,-0.1592,-0.146,-0.1455,-0.145,0,0,0,0,0,0,0,0,0,0,0,0,0,-0.1846,-0.1947,-0.1739,-0.171,-0.1706,-0.1614,-0.1612,-0.161,-0.1588,-0.159,-0.1591,-0.1593,-0.1462,-0.1456,-0.1449,-0.1376,0,0,-0.1428,-0.1425,0,0,0,0,0,0,0,0,-0.1852,-0.1838,-0.1715,-0.1712,-0.1707,-0.1618,-0.1639,-0.1531,-0.1588,-0.1633,-0.1592,-0.1593,-0.151,-0.15,-0.1473,-0.137,-0.1364,-0.1428,-0.1424,-0.1421,-0.1419,0,0,0,0,0,0,0,-0.186,-0.1844,-0.1689,-0.1714,-0.1709,-0.1701,-0.1688,-0.1618,-0.1564,-0.1629,-0.1627,-0.1613,-0.1508,-0.1479,-0.1469,-0.1362,-0.1428,-0.1422,-0.1418,-0.1415,-0.1189,-0.1188,0,0,0,0,0,0,-0.1873,-0.185,-0.1693,-0.1685,-0.1785,-0.1696,-0.1681,-0.1645,-0.1565,-0.1554,-0.1611,-0.1612,-0.149,-0.1477,-0.1465,-0.1372,-0.1421,-0.1414,-0.1411,-0.1191,-0.1189,-0.1187,0,0,0,0,0,0,-0.1877,-0.1859,-0.1698,-0.1767,-0.1746,-0.1691,-0.165,-0.1642,-0.1613,-0.1552,-0.1541,-0.1592,-0.1491,-0.1474,-0.1398,-0.1367,-0.1411,-0.1405,-0.1194,-0.1191,-0.1188,-0.1187,0,0,0,0,0,0,-0.1884,-0.1861,-0.1834,-0.1766,-0.1742,-0.1635,-0.1648,-0.1638,-0.1602,-0.1601,-0.1531,-0.1521,-0.1491,-0.1408,-0.1391,-0.1358,-0.14,-0.1196,-0.1192,-0.1189,-0.1189,-0.1184,-0.118,0,0,0,0,0,-0.1891,-0.1838,-0.1833,-0.1814,-0.1708,-0.1633,-0.1619,-0.1587,-0.1599,-0.1571,-0.1531,-0.1523,-0.1373,-0.14,-0.1381,-0.1346,-0.1198,-0.1193,-0.1189,-0.1191,-0.1185,-0.118,0,0,0,0,0,0,-0.1902,-0.1829,-0.1822,-0.1746,-0.1696,-0.163,-0.1592,-0.1582,-0.1526,-0.1528,-0.1489,-0.1474,-0.1399,-0.1365,-0.1396,-0.127,-0.1286,-0.1278,-0.1295,-0.1288,-0.1284,-0.1293,-0.1394,0,0,0,0,0,-0.1896,-0.1843,-0.1781,-0.172,-0.1695,-0.1648,-0.1614,-0.1594,-0.154,-0.1519,-0.1474,-0.142,-0.1361,-0.1323,-0.1265,-0.1185,-0.1167,-0.1151,-0.1146,-0.1143,-0.1135,-0.1088,-0.1079,-0.1173,-0.1173,-0.1173,0,0,-0.1882,-0.1835,-0.1804,-0.172,-0.168,-0.1624,-0.163,-0.1572,-0.1529,-0.1509,-0.1434,-0.1399,-0.1337,-0.1258,-0.122,-0.1227,-0.1106,-0.1137,-0.1135,-0.1129,-0.1082,-0.1073,-0.1066,-0.117,-0.117,-0.1171,0,0,-0.1827,-0.1788,-0.1731,-0.169,-0.1628,-0.1597,-0.1584,-0.1519,-0.1495,-0.1419,-0.1403,-0.1351,-0.125,-0.1206,-0.117,-0.1098,-0.1087,-0.108,-0.1055,-0.1009,-0.1001,-0.0994,-0.0966,-0.0957,-0.1073,-0.1073,-0.1073,0,-0.1817,-0.1734,-0.1703,-0.1645,-0.1607,-0.1588,-0.1529,-0.149,-0.1412,-0.1386,-0.1395,-0.1267,-0.1224,-0.1133,-0.1115,-0.1087,-0.1069,-0.1087,-0.1005,-0.0998,-0.0991,-0.0964,-0.0954,-0.1072,-0.1072,-0.1072,-0.1072,0,-0.1724,-0.1666,-0.1628,-0.1554,-0.1512,-0.1454,-0.1412,-0.1373,-0.1356,-0.1323,-0.1245,-0.1193,-0.1123,-0.11,-0.1083,-0.1006,-0.1012,-0.1013,-0.1029,-0.0982,-0.0956,-0.0945,-0.1071,-0.1072,-0.1072,-0.1072,0,0,-0.1673,-0.1582,-0.1568,-0.1534,-0.1464,-0.1417,-0.1357,-0.129,-0.1257,-0.1203,-0.115,-0.1065,-0.1065,-0.1025,-0.1002,-0.0962,-0.0905,-0.0968,-0.0966,-0.0957,-0.0814,-0.0813,-0.0801,-0.0898,-0.0896,-0.0894,-0.0819,0,-0.1609,-0.1502,-0.1472,-0.1381,-0.1326,-0.1306,-0.1253,-0.1203,-0.1171,-0.1118,-0.1081,-0.1021,-0.1027,-0.1002,-0.0962,-0.0921,-0.0876,-0.0926,-0.0846,-0.0843,-0.0861,-0.0788,-0.0786,-0.0717,-0.0809,-0.0807,-0.0806,0,-0.152,-0.1466,-0.137,-0.1305,-0.1281,-0.1234,-0.1169,-0.112,-0.1062,-0.1041,-0.0995,-0.0975,-0.0909,-0.0929,-0.0836,-0.0871,-0.0836,-0.0811,-0.0807,-0.0797,-0.0821,-0.0774,-0.0695,-0.0684,-0.079,-0.0791,-0.0792,0,-0.149,-0.1393,-0.1323,-0.1294,-0.1217,-0.1184,-0.1151,-0.1094,-0.1055,-0.0998,-0.0972,-0.0908,-0.0872,-0.0821,-0.0784,-0.0802,-0.0693,-0.071,-0.0671,-0.0672,-0.0648,-0.065,-0.056,-0.0628,-0.0629,-0.0629,-0.0629,0,-0.1422,-0.1363,-0.1308,-0.1265,-0.1198,-0.1162,-0.1097,-0.1061,-0.1011,-0.0959,-0.0938,-0.0888,-0.0843,-0.0787,-0.0757,-0.0683,-0.0667,-0.0646,-0.0639,-0.0647,-0.065,-0.0623,-0.0626,-0.0626,-0.0627,-0.0627,-0.0628,0,-0.1377,-0.1338,-0.126,-0.1193,-0.1175,-0.1129,-0.1071,-0.1026,-0.0993,-0.0927,-0.0909,-0.0856,-0.0789,-0.0747,-0.0661,-0.0641,-0.0559,-0.0554,-0.0579,-0.0575,-0.0538,-0.0541,-0.0427,-0.0409,-0.0491,-0.049,-0.0489,0,-0.1335,-0.1289,-0.1218,-0.1182,-0.1149,-0.1091,-0.1051,-0.1014,-0.0973,-0.0903,-0.0866,-0.0798,-0.0741,-0.0635,-0.0587,-0.0521,-0.0513,-0.0477,-0.0502,-0.0512,-0.051,-0.0512,-0.0506,-0.0472,-0.0472,-0.0471,-0.0471,0,-0.1264,-0.1246,-0.1191,-0.1128,-0.1082,-0.103,-0.0978,-0.0949,-0.0903,-0.0857,-0.0789,-0.0745,-0.0658,-0.0589,-0.0519,-0.0482,-0.0467,-0.0463,-0.045,-0.0458,-0.0474,-0.0463,-0.0566,-0.0466,-0.0466,-0.0467,-0.0467,-0.0467,-0.1217,-0.1176,-0.1119,-0.1057,-0.1014,-0.0966,-0.0921,-0.0882,-0.0825,-0.0752,-0.0733,-0.066,-0.0601,-0.0505,-0.0466,-0.0407,-0.0412,-0.0394,-0.0389,-0.0385,-0.0383,-0.0484,-0.0395,-0.0395,-0.0395,-0.0395,-0.0395,0,-0.1144,-0.1106,-0.105,-0.0978,-0.0929,-0.0922,-0.0864,-0.0822,-0.076,-0.0706,-0.0651,-0.0571,-0.0504,-0.0451,-0.0382,-0.0345,-0.0336,-0.0328,-0.0329,-0.032,-0.0384,-0.0401,-0.0336,-0.0336,-0.0336,-0.0336,-0.0336,-0.0336,-0.1099,-0.1027,-0.1003,-0.0909,-0.0871,-0.0801,-0.0768,-0.0723,-0.068,-0.0592,-0.0537,-0.0504,-0.0449,-0.0376,-0.0313,-0.0299,-0.0273,-0.0266,-0.025,-0.031,-0.0316,-0.0322,-0.0338,-0.0261,-0.0261,-0.0191,-0.019,-0.019]}]]